Regional Weather Roundup
Issued by NWS

Home | Current Version | Previous Version | Graphics & Text | Print | Product List | Glossary On
Versions: 1 2 3 4 5 6 7 8 9 10 11 12 13 14 15 16 17 18 19 20 21 22 23 24 25 26 27 28 29 30 31 32 33 34 35 36 37 38 39 40 41 42 43 44 45 46 47 48 49 50
000
ASUS45 KCYS 201210
RWRWY

WYOMING REGIONAL WEATHER ROUNDUP
NATIONAL WEATHER SERVICE CHEYENNE WY
600 AM MDT FRI APR 20 2018

NOTE:  "FAIR" INDICATES FEW OR NO CLOUDS BELOW 12,000 FEET
WITH NO SIGNIFICANT WEATHER AND/OR OBSTRUCTIONS TO VISIBILITY.

WYZ001-201300-
YELLOWSTONE NATIONAL PARK

CITY           SKY/WX    TMP DP  RH WIND       PRES   REMARKS
LK YELLOWSTONE   N/A     30  16  56 VRB5      30.07R WCI  25
6HR MIN TEMP:  25; 6HR MAX TEMP:  34;

W YELLOWSTONE  NOT AVBL

$$
WYZ002>013-054>058-071-098>099-201300-
NORTHERN WYOMING

CITY           SKY/WX    TMP DP  RH WIND       PRES   REMARKS
JACKSON        FAIR      35  22  58 N18       29.97F WCI  24
CODY           FAIR      38  26  62 NE8       30.04R WCI  32
GREYBULL       FAIR      45  33  63 NW16      29.93S
6HR MIN TEMP:  44; 6HR MAX TEMP:  49;

WORLAND        FAIR      41  32  70 W6        29.96S
6HR MIN TEMP:  37; 6HR MAX TEMP:  44;

SHERIDAN       FAIR      42  34  73 S5        30.02R
6HR MIN TEMP:  40; 6HR MAX TEMP:  50;

BUFFALO        FAIR      40  29  64 S8        30.03S WCI  34
6HR MIN TEMP:  39; 6HR MAX TEMP:  46;

GILLETTE       FAIR      40  27  59 SE10      30.05R WCI  33
HULETT         FAIR      37  32  81 CALM      30.09S
NEWCASTLE      FAIR      43  23  45 SE23G31   30.07R

$$
WYZ014>020-022>026-101>103-201300-
CENTRAL WYOMING

CITY           SKY/WX    TMP DP  RH WIND       PRES   REMARKS
BIG PINEY      CLOUDY    37  36  96 NW10      29.94F WCI  30
6HR MIN TEMP:  37; 6HR MAX TEMP:  48; 6HR PCP:  0.07;

PINEDALE       CLOUDY    36  34  93 NW7       29.95R WCI  30
DUBOIS         CLOUDY    32  23  69 NW3       30.00S
LANDER         CLOUDY    42  26  53 W7        29.97R
6HR MIN TEMP:  38; 6HR MAX TEMP:  46;

RIVERTON       CLOUDY    40  23  50 N5        29.98R
6HR MIN TEMP:  40; 6HR MAX TEMP:  45;

CASPER         FAIR      34  27  75 NE6       29.98R WCI  29
6HR MIN TEMP:  33; 6HR MAX TEMP:  46;

DOUGLAS        FAIR      36  27  69 SE15G25   29.98F WCI  27
6HR MIN TEMP:  36; 6HR MAX TEMP:  44;


$$
WYZ021-027>030-104>119-201300-
SOUTHERN WYOMING

CITY           SKY/WX    TMP DP  RH WIND       PRES   REMARKS
EVANSTON       CLOUDY    37  34  89 NE15G28   29.86S WCI  28
6HR MIN TEMP:  37; 6HR MAX TEMP:  45;

KEMMERER       FLURRIES  34  32  93 NE10G23   29.93R WCI  26
FORT BRIDGER   CLOUDY    37  37 100 E10       29.93R WCI  29
ROCK SPRINGS   CLOUDY    40  22  48 NE22G32   29.89R WCI  30
6HR MIN TEMP:  40; 6HR MAX TEMP:  47; 6HR PCP: TRACE;

DIXON          LGT RAIN  44  34  68 SW3       29.91R
RAWLINS        MOCLDY    37  23  56 E13       29.91R WCI  29
6HR MIN TEMP:  36; 6HR MAX TEMP:  45;

SARATOGA       PTSUNNY   36  23  60 NW7       29.89R WCI  30
LARAMIE        MOCLDY    32  23  69 S20       29.88F WCI  20
6HR MIN TEMP:  31; 6HR MAX TEMP:  38;

CHEYENNE       FAIR      31  25  78 SE8       29.95F WCI  23
6HR MIN TEMP:  31; 6HR MAX TEMP:  40;

TORRINGTON     FAIR      38  28  67 SE20G28   30.01F WCI  28
6HR MIN TEMP:  36; 6HR MAX TEMP:  43;

PINE BLUFFS    FAIR      34  27  75 MISG      29.99S

$$



USA.gov is the U.S. government's official web portal to all federal, state and local government web resources and services.